| time (UTC) | temp F | wind direction | speed MPH | gust MPH | rain 1hr in | rain 24hr in | rain mn in | humidity % | barometer mb |
| 20260505025146 | 62 | 194 | 6.0 | 11.0 | 0.00 | 0.00 | 0.00 | 41 | 1005.2 |
| 20260505024645 | 62 | 195 | 6.0 | 9.0 | 0.00 | 0.00 | 0.00 | 43 | 1004.9 |
| 20260505024141 | 62 | 180 | 6.0 | 10.0 | 0.00 | 0.00 | 0.00 | 43 | 1004.9 |
| 20260505023635 | 62 | 121 | 7.0 | 12.0 | 0.00 | 0.00 | 0.00 | 44 | 1004.8 |
| 20260505023129 | 62 | 132 | 7.0 | 12.0 | 0.00 | 0.00 | 0.00 | 44 | 1004.8 |
| 20260505022619 | 62 | 165 | 7.0 | 14.0 | 0.00 | 0.00 | 0.00 | 44 | 1004.6 |
| 20260505022109 | 62 | 109 | 8.0 | 16.0 | 0.00 | 0.00 | 0.00 | 44 | 1004.6 |
| 20260505021610 | 62 | 132 | 9.0 | 16.0 | 0.00 | 0.00 | 0.00 | 46 | 1004.6 |
| 20260505021104 | 62 | 122 | 10.0 | 16.0 | 0.00 | 0.00 | 0.00 | 45 | 1004.8 |
| 20260505020559 | 62 | 115 | 10.0 | 14.0 | 0.00 | 0.00 | 0.00 | 45 | 1004.6 |
| 20260505020049 | 63 | 133 | 10.0 | 14.0 | 0.00 | 0.00 | 0.00 | 44 | 1004.8 |
| 20260505015546 | 63 | 119 | 9.0 | 16.0 | 0.00 | 0.00 | 0.00 | 44 | 1004.6 |
| 20260505015308 | 63 | 117 | 9.0 | 16.0 | 0.00 | 0.00 | 0.00 | 44 | 1004.9 |
| 20260505014807 | 63 | 123 | 9.0 | 16.0 | 0.00 | 0.00 | 0.00 | 46 | 1004.9 |
| 20260505014300 | 63 | 118 | 8.0 | 16.0 | 0.00 | 0.00 | 0.00 | 49 | 1005.1 |
| 20260505013522 | 64 | 120 | 8.0 | 16.0 | 0.00 | 0.00 | 0.00 | 45 | 1005.0 |
| 20260505013012 | 63 | 105 | 9.0 | 14.0 | 0.00 | 0.00 | 0.00 | 49 | 1005.1 |
| 20260505012738 | 63 | 90 | 10.0 | 18.0 | 0.00 | 0.00 | 0.00 | 49 | 1005.0 |
| 20260505012005 | 63 | 109 | 11.0 | 21.0 | 0.00 | 0.00 | 0.00 | 47 | 1005.0 |
| 20260505011224 | 65 | 122 | 11.0 | 22.0 | 0.00 | 0.00 | 0.00 | 42 | 1005.4 |
| 20260505010446 | 66 | 123 | 9.0 | 17.0 | 0.00 | 0.00 | 0.00 | 35 | 1005.7 |
| 20260505005937 | 67 | 111 | 8.0 | 13.0 | 0.00 | 0.00 | 0.00 | 32 | 1005.8 |
| 20260505005435 | 67 | 160 | 7.0 | 13.0 | 0.00 | 0.00 | 0.00 | 33 | 1005.8 |
| 20260505004930 | 67 | 118 | 5.0 | 13.0 | 0.00 | 0.00 | 0.00 | 33 | 1006.0 |
| 20260505004424 | 67 | 123 | 5.0 | 8.0 | 0.00 | 0.00 | 0.00 | 30 | 1006.1 |
| 20260505003912 | 68 | 128 | 6.0 | 8.0 | 0.00 | 0.00 | 0.00 | 30 | 1006.3 |
| 20260505003407 | 68 | 184 | 7.0 | 12.0 | 0.00 | 0.00 | 0.00 | 30 | 1006.1 |
| 20260505002906 | 68 | 157 | 7.0 | 13.0 | 0.00 | 0.00 | 0.00 | 30 | 1006.1 |
| 20260505002356 | 68 | 114 | 7.0 | 13.0 | 0.00 | 0.00 | 0.00 | 30 | 1006.3 |
| 20260505001853 | 68 | 100 | 7.0 | 13.0 | 0.00 | 0.00 | 0.00 | 30 | 1006.1 |
| 20260505001347 | 69 | 142 | 5.0 | 12.0 | 0.00 | 0.00 | 0.00 | 30 | 1006.4 |
| 20260505001112 | 69 | 112 | 3.0 | 8.0 | 0.00 | 0.00 | 0.00 | 30 | 1006.6 |
| 20260505000332 | 69 | 37 | 3.0 | 6.0 | 0.00 | 0.00 | 0.00 | 30 | 1006.5 |
| 20260504235822 | 69 | 0 | 3.0 | 7.0 | 0.00 | 0.00 | 0.00 | 30 | 1006.5 |
| 20260504235323 | 69 | 17 | 2.0 | 7.0 | 0.00 | 0.00 | 0.00 | 30 | 1006.4 |
| 20260504234824 | 69 | 344 | 1.0 | 4.0 | 0.00 | 0.00 | 0.00 | 27 | 1006.6 |
| 20260504234323 | 69 | 153 | 2.0 | 5.0 | 0.00 | 0.00 | 0.00 | 28 | 1006.4 |
| 20260504233802 | 68 | 265 | 3.0 | 6.0 | 0.00 | 0.00 | 0.00 | 29 | 1006.1 |
| 20260504233251 | 67 | 242 | 4.0 | 7.0 | 0.00 | 0.00 | 0.00 | 30 | 1005.9 |
| 20260504232752 | 67 | 252 | 5.0 | 11.0 | 0.00 | 0.00 | 0.00 | 31 | 1006.0 |
| 20260504232244 | 67 | 304 | 6.0 | 12.0 | 0.00 | 0.00 | 0.00 | 32 | 1005.8 |
| 20260504231739 | 67 | 277 | 6.0 | 15.0 | 0.00 | 0.00 | 0.00 | 32 | 1005.8 |
| 20260504231232 | 67 | 243 | 7.0 | 15.0 | 0.00 | 0.00 | 0.00 | 32 | 1005.7 |
| 20260504230726 | 67 | 248 | 8.0 | 13.0 | 0.00 | 0.00 | 0.00 | 32 | 1005.7 |
| 20260504230220 | 66 | 275 | 7.0 | 12.0 | 0.00 | 0.00 | 0.00 | 32 | 1005.7 |
| 20260504225710 | 66 | 229 | 8.0 | 19.0 | 0.00 | 0.00 | 0.00 | 33 | 1005.6 |
| 20260504225209 | 67 | 221 | 9.0 | 19.0 | 0.00 | 0.00 | 0.00 | 32 | 1005.8 |
| 20260504224702 | 67 | 276 | 9.0 | 16.0 | 0.00 | 0.00 | 0.00 | 32 | 1005.9 |
| 20260504224158 | 68 | 238 | 9.0 | 17.0 | 0.00 | 0.00 | 0.00 | 33 | 1006.1 |
| 20260504223648 | 67 | 277 | 10.0 | 17.0 | 0.00 | 0.00 | 0.00 | 33 | 1006.0 |
| 20260504223142 | 68 | 265 | 9.0 | 17.0 | 0.00 | 0.00 | 0.00 | 33 | 1006.1 |
| 20260504222633 | 68 | 259 | 10.0 | 19.0 | 0.00 | 0.00 | 0.00 | 33 | 1006.5 |
| 20260504222125 | 69 | 270 | 9.0 | 19.0 | 0.00 | 0.00 | 0.00 | 33 | 1006.6 |
| 20260504221620 | 70 | 182 | 8.0 | 14.0 | 0.00 | 0.00 | 0.00 | 33 | 1006.7 |
| 20260504221113 | 70 | 191 | 7.0 | 14.0 | 0.00 | 0.00 | 0.00 | 32 | 1006.7 |
| 20260504220607 | 69 | 295 | 6.0 | 14.0 | 0.00 | 0.00 | 0.00 | 33 | 1006.5 |
| 20260504220108 | 69 | 226 | 6.0 | 12.0 | 0.00 | 0.00 | 0.00 | 33 | 1006.4 |
| 20260504215605 | 69 | 279 | 7.0 | 12.0 | 0.00 | 0.00 | 0.00 | 32 | 1006.6 |
| 20260504215106 | 69 | 263 | 6.0 | 11.0 | 0.00 | 0.00 | 0.00 | 31 | 1006.7 |
| 20260504214604 | 69 | 294 | 7.0 | 14.0 | 0.00 | 0.00 | 0.00 | 31 | 1006.7 |
| 20260504214102 | 69 | 267 | 7.0 | 14.0 | 0.00 | 0.00 | 0.00 | 32 | 1006.5 |
| 20260504213603 | 68 | 260 | 7.0 | 14.0 | 0.00 | 0.00 | 0.00 | 34 | 1006.4 |
| 20260504213105 | 67 | 271 | 6.0 | 15.0 | 0.00 | 0.00 | 0.00 | 33 | 1006.0 |
| 20260504212601 | 67 | 263 | 7.0 | 15.0 | 0.00 | 0.00 | 0.00 | 33 | 1006.1 |
| 20260504212100 | 67 | 258 | 9.0 | 16.0 | 0.00 | 0.00 | 0.00 | 34 | 1006.1 |
| 20260504211602 | 66 | 214 | 10.0 | 16.0 | 0.00 | 0.00 | 0.00 | 35 | 1006.1 |
| 20260504211100 | 66 | 267 | 10.0 | 18.0 | 0.00 | 0.00 | 0.00 | 37 | 1006.3 |
| 20260504210559 | 66 | 274 | 10.0 | 19.0 | 0.00 | 0.00 | 0.00 | 37 | 1006.4 |
| 20260504210100 | 67 | 274 | 10.0 | 19.0 | 0.00 | 0.00 | 0.00 | 36 | 1006.5 |
| 20260504205558 | 67 | 263 | 11.0 | 21.0 | 0.00 | 0.00 | 0.00 | 35 | 1006.6 |
| 20260504205057 | 67 | 266 | 9.0 | 22.0 | 0.00 | 0.00 | 0.00 | 35 | 1006.7 |
| 20260504204558 | 68 | 275 | 7.0 | 22.0 | 0.00 | 0.00 | 0.00 | 32 | 1006.8 |
| 20260504204059 | 68 | 196 | 8.0 | 14.0 | 0.00 | 0.00 | 0.00 | 36 | 1006.7 |
| 20260504203549 | 67 | 128 | 8.0 | 14.0 | 0.00 | 0.00 | 0.00 | 35 | 1006.8 |
| 20260504203042 | 68 | 130 | 7.0 | 14.0 | 0.00 | 0.00 | 0.00 | 36 | 1006.8 |
| 20260504202536 | 68 | 107 | 8.0 | 14.0 | 0.00 | 0.00 | 0.00 | 35 | 1006.9 |
| 20260504202029 | 68 | 137 | 9.0 | 15.0 | 0.00 | 0.00 | 0.00 | 34 | 1006.9 |
| 20260504201754 | 68 | 91 | 9.0 | 14.0 | 0.00 | 0.00 | 0.00 | 32 | 1006.8 |
| 20260504201016 | 68 | 81 | 9.0 | 18.0 | 0.00 | 0.00 | 0.00 | 33 | 1007.1 |
| 20260504200516 | 68 | 114 | 10.0 | 18.0 | 0.00 | 0.00 | 0.00 | 33 | 1007.2 |
| 20260504200014 | 69 | 119 | 11.0 | 20.0 | 0.00 | 0.00 | 0.00 | 32 | 1007.3 |
| 20260504195744 | 69 | 91 | 11.0 | 21.0 | 0.00 | 0.00 | 0.00 | 32 | 1007.4 |
| 20260504195013 | 70 | 124 | 11.0 | 21.0 | 0.00 | 0.00 | 0.00 | 31 | 1007.5 |
| 20260504194512 | 69 | 84 | 11.0 | 17.0 | 0.00 | 0.00 | 0.00 | 32 | 1007.6 |
| 20260504194011 | 70 | 121 | 11.0 | 21.0 | 0.00 | 0.00 | 0.00 | 32 | 1007.7 |
| 20260504193511 | 69 | 180 | 13.0 | 21.0 | 0.00 | 0.00 | 0.00 | 32 | 1007.5 |
| 20260504193012 | 69 | 97 | 13.0 | 21.0 | 0.00 | 0.00 | 0.00 | 33 | 1007.6 |
| 20260504192513 | 69 | 31 | 13.0 | 21.0 | 0.00 | 0.00 | 0.00 | 33 | 1007.5 |
| 20260504192009 | 69 | 85 | 12.0 | 20.0 | 0.00 | 0.00 | 0.00 | 34 | 1007.5 |
| 20260504191509 | 69 | 100 | 12.0 | 20.0 | 0.00 | 0.00 | 0.00 | 33 | 1007.7 |
| 20260504191006 | 70 | 107 | 11.0 | 20.0 | 0.00 | 0.00 | 0.00 | 31 | 1007.7 |
| 20260504190508 | 69 | 92 | 11.0 | 19.0 | 0.00 | 0.00 | 0.00 | 33 | 1007.7 |
| 20260504185455 | 69 | 113 | 11.0 | 19.0 | 0.00 | 0.00 | 0.00 | 34 | 1008.2 |
| 20260504184955 | 69 | 100 | 11.0 | 19.0 | 0.00 | 0.00 | 0.00 | 34 | 1007.9 |
| 20260504184455 | 69 | 72 | 11.0 | 20.0 | 0.00 | 0.00 | 0.00 | 33 | 1008.2 |
| 20260504183955 | 69 | 128 | 10.0 | 20.0 | 0.00 | 0.00 | 0.00 | 33 | 1008.1 |
| 20260504183453 | 69 | 109 | 10.0 | 16.0 | 0.00 | 0.00 | 0.00 | 34 | 1008.1 |
| 20260504182956 | 69 | 96 | 10.0 | 16.0 | 0.00 | 0.00 | 0.00 | 33 | 1008.2 |
| 20260504182452 | 69 | 86 | 10.0 | 16.0 | 0.00 | 0.00 | 0.00 | 33 | 1008.1 |
| 20260504181953 | 68 | 101 | 9.0 | 16.0 | 0.00 | 0.00 | 0.00 | 33 | 1008.1 |
| 20260504181454 | 69 | 82 | 8.0 | 15.0 | 0.00 | 0.00 | 0.00 | 34 | 1008.2 |
| 20260504181218 | 68 | 103 | 8.0 | 15.0 | 0.00 | 0.00 | 0.00 | 35 | 1008.0 |
| 20260504180439 | 67 | 89 | 8.0 | 15.0 | 0.00 | 0.00 | 0.00 | 35 | 1008.1 |
| 20260504180210 | 67 | 83 | 9.0 | 13.0 | 0.00 | 0.00 | 0.00 | 35 | 1008.0 |
| 20260504175439 | 67 | 74 | 9.0 | 18.0 | 0.00 | 0.00 | 0.00 | 35 | 1007.9 |
| 20260504175210 | 66 | 42 | 9.0 | 18.0 | 0.00 | 0.00 | 0.00 | 35 | 1008.0 |
| 20260504174437 | 67 | 98 | 9.0 | 16.0 | 0.00 | 0.00 | 0.00 | 35 | 1008.3 |
| 20260504173938 | 67 | 76 | 9.0 | 15.0 | 0.00 | 0.00 | 0.00 | 37 | 1008.1 |
| 20260504173436 | 66 | 113 | 10.0 | 16.0 | 0.00 | 0.00 | 0.00 | 37 | 1008.0 |
| 20260504172938 | 66 | 118 | 10.0 | 16.0 | 0.00 | 0.00 | 0.00 | 35 | 1008.1 |
| 20260504172440 | 66 | 83 | 9.0 | 16.0 | 0.00 | 0.00 | 0.00 | 36 | 1008.3 |
| 20260504172207 | 65 | 97 | 10.0 | 16.0 | 0.00 | 0.00 | 0.00 | 37 | 1008.2 |
| 20260504171421 | 65 | 134 | 9.0 | 16.0 | 0.00 | 0.00 | 0.00 | 37 | 1008.2 |
| 20260504170916 | 66 | 110 | 8.0 | 15.0 | 0.00 | 0.00 | 0.00 | 35 | 1008.3 |
| 20260504170418 | 66 | 76 | 8.0 | 14.0 | 0.00 | 0.00 | 0.00 | 40 | 1008.2 |
| 20260504160407 | 63 | 96 | 4.0 | 7.0 | 0.00 | 0.00 | 0.00 | 45 | 1007.7 |
| 20260504160136 | 62 | 56 | 4.0 | 7.0 | 0.00 | 0.00 | 0.00 | 45 | 1007.5 |
| 20260504151020 | 60 | 84 | 4.0 | 7.0 | 0.00 | 0.00 | 0.00 | 50 | 1007.5 |
| 20260504150235 | 60 | 99 | 5.0 | 8.0 | 0.00 | 0.00 | 0.00 | 49 | 1007.5 |
| 20260504141036 | 57 | 202 | 3.0 | 5.0 | 0.00 | 0.00 | 0.00 | 57 | 1006.7 |
| 20260504140523 | 57 | 175 | 3.0 | 6.0 | 0.00 | 0.00 | 0.00 | 56 | 1006.6 |
| 20260504130344 | 56 | 46 | 2.0 | 4.0 | 0.00 | 0.00 | 0.00 | 57 | 1006.3 |
| 20260504130109 | 56 | 107 | 2.0 | 5.0 | 0.00 | 0.00 | 0.00 | 57 | 1006.5 |
| 20260504110118 | 56 | 279 | 0.0 | 2.0 | 0.00 | 0.00 | 0.00 | 50 | 1006.4 |
| 20260504100506 | 57 | 326 | 3.0 | 5.0 | 0.00 | 0.00 | 0.00 | 44 | 1007.2 |
| 20260504081750 | 56 | 22 | 4.0 | 7.0 | 0.00 | 0.00 | 0.00 | 35 | 1006.3 |
| 20260504081245 | 55 | 40 | 3.0 | 7.0 | 0.00 | 0.00 | 0.00 | 36 | 1005.9 |
| 20260504080732 | 55 | 46 | 3.0 | 9.0 | 0.00 | 0.00 | 0.00 | 36 | 1005.9 |
| 20260504080234 | 55 | 274 | 5.0 | 9.0 | 0.00 | 0.00 | 0.00 | 36 | 1005.8 |
| 20260504070206 | 59 | 344 | 0.0 | 4.0 | 0.00 | 0.00 | 0.00 | 30 | 1006.5 |
| 20260504060123 | 59 | 267 | 4.0 | 5.0 | 0.00 | 0.00 | 0.00 | 31 | 1006.7 |
| 20260504050557 | 62 | 321 | 2.0 | 4.0 | 0.00 | 0.00 | 0.00 | 28 | 1008.0 |
| 20260504045555 | 62 | 14 | 0.0 | 2.0 | 0.00 | 0.00 | 0.00 | 27 | 1008.1 |
| 20260504045049 | 63 | 14 | 0.0 | 4.0 | 0.00 | 0.00 | 0.00 | 27 | 1008.2 |
| 20260504044519 | 63 | 14 | 1.0 | 4.0 | 0.00 | 0.00 | 0.00 | 26 | 1008.1 |
| 20260504044008 | 63 | 9 | 1.0 | 4.0 | 0.00 | 0.00 | 0.00 | 27 | 1008.1 |
| 20260504043741 | 64 | 287 | 1.0 | 4.0 | 0.00 | 0.00 | 0.00 | 26 | 1008.3 |
| 20260504043004 | 65 | 238 | 2.0 | 5.0 | 0.00 | 0.00 | 0.00 | 25 | 1008.7 |
| 20260504042503 | 65 | 248 | 2.0 | 5.0 | 0.00 | 0.00 | 0.00 | 24 | 1008.9 |
| 20260504042236 | 65 | 281 | 1.0 | 5.0 | 0.00 | 0.00 | 0.00 | 23 | 1008.8 |
| 20260504041457 | 65 | 258 | 1.0 | 4.0 | 0.00 | 0.00 | 0.00 | 24 | 1008.9 |
| 20260504040956 | 66 | 211 | 2.0 | 5.0 | 0.00 | 0.00 | 0.00 | 23 | 1009.2 |
| 20260504040455 | 66 | 254 | 3.0 | 6.0 | 0.00 | 0.00 | 0.00 | 22 | 1009.2 |
| 20260504035951 | 66 | 262 | 3.0 | 6.0 | 0.00 | 0.00 | 0.00 | 23 | 1009.2 |
| 20260504035455 | 66 | 280 | 3.0 | 5.0 | 0.00 | 0.00 | 0.00 | 23 | 1009.1 |
| 20260504034953 | 65 | 332 | 3.0 | 6.0 | 0.00 | 0.00 | 0.00 | 23 | 1009.0 |
| 20260504034452 | 65 | 244 | 3.0 | 8.0 | 0.00 | 0.00 | 0.00 | 24 | 1009.0 |
| 20260504033946 | 66 | 256 | 4.0 | 8.0 | 0.00 | 0.00 | 0.00 | 23 | 1009.1 |
| 20260504033709 | 67 | 272 | 3.0 | 7.0 | 0.00 | 0.00 | 0.00 | 23 | 1009.2 |
| 20260504032939 | 67 | 286 | 4.0 | 7.0 | 0.00 | 0.00 | 0.00 | 22 | 1009.3 |
| 20260504032438 | 67 | 240 | 3.0 | 7.0 | 0.00 | 0.00 | 0.00 | 21 | 1009.5 |
| 20260504031940 | 68 | 221 | 2.0 | 5.0 | 0.00 | 0.00 | 0.00 | 21 | 1009.5 |
| 20260504031437 | 68 | 221 | 2.0 | 4.0 | 0.00 | 0.00 | 0.00 | 20 | 1009.5 |
| 20260504030939 | 68 | 191 | 3.0 | 9.0 | 0.00 | 0.00 | 0.00 | 20 | 1009.6 |
| 20260504030434 | 69 | 229 | 4.0 | 9.0 | 0.00 | 0.00 | 0.00 | 20 | 1009.6 |
| 20260504025935 | 69 | 330 | 6.0 | 9.0 | 0.00 | 0.00 | 0.00 | 20 | 1009.7 |
| 20260504025434 | 69 | 306 | 7.0 | 11.0 | 0.00 | 0.00 | 0.00 | 20 | 1009.7 |